Brownsville, TX

4:43 AM CDT on September 27, 2016 (GMT -0500)
Brownsville-South Padre I International

Weather History for KBRO - October, 2011

Change the Weather History Date:

Wednesday, October 12, 2011

  Actual Average Record
Temperature  
Mean Temperature 81 °F 77 °F  
Max Temperature 89 °F 86 °F 94 °F (1897)
Min Temperature 73 °F 68 °F 51 °F (1994)
Degree Days  
Heating Degree Days 0 0  
Month to date heating degree days 0 0  
Since 1 July heating degree days 0 0  
Cooling Degree Days 16 12  
Month to date cooling degree days 178 157  
Year to date cooling degree days 4165 3568  
Growing Degree Days 30 (Base 50)    
Moisture  
Dew Point 71 °F    
Average Humidity 72    
Maximum Humidity 94    
Minimum Humidity 50    
Precipitation  
Precipitation 0.00 in 0.13 in 3.49 in (1995)
Month to date precipitation 0.98 1.70  
Year to date precipitation 15.57 22.43  
Sea Level Pressure  
Sea Level Pressure 29.79 in    
Wind  
Wind Speed 6 mph (SSE)    
Max Wind Speed 14 mph    
Max Gust Speed 22 mph    
Visibility 10 miles    
Events      
T = Trace of Precipitation, MM = Missing Value Source: NWS Daily Summary

Daily Weather History Graph

Daily Weather History Graph

Search for Another Location

Airport or City:

Trip Planner

Search our weather history database for the weather conditions in past years. The results will help you decide how hot, cold, wet, or windy it might be!

Date:

Astronomy

Oct. 12, 2011 Rise Set
Actual Time 7:26 AM CDT 7:05 PM CDT
Civil Twilight 7:03 AM CDT 7:28 PM CDT
Nautical Twilight 6:37 AM CDT 7:54 PM CDT
Astronomical Twilight 6:10 AM CDT 8:21 PM CDT
Moon 7:19 PM CDT (10/12) 7:53 AM CDT (10/12)
Length of Visible Light 12h 24m
Length of Day
11h 38m
Full, 100% of the Moon is Illuminated
Oct 12
Full
Oct 19
Last Quarter
Oct 26
New
Nov 2
First Quarter
Nov 10
Full

Hourly Weather History & Observations

Time (CDT) Temp. Heat Index Dew Point Humidity Pressure Visibility Wind Dir Wind Speed Gust Speed Precip Events Conditions
12:53 AM 75.9 °F - 71.1 °F 85% 29.83 in 10.0 mi SE 4.6 mph - N/A   Clear
1:53 AM 75.9 °F - 71.1 °F 85% 29.82 in 10.0 mi Calm Calm - N/A   Clear
2:53 AM 75.9 °F - 71.1 °F 85% 29.81 in 10.0 mi Calm Calm - N/A   Clear
3:53 AM 75.0 °F - 71.1 °F 87% 29.80 in 10.0 mi Calm Calm - N/A   Clear
4:53 AM 73.9 °F - 71.1 °F 91% 29.79 in 10.0 mi South 6.9 mph - N/A   Clear
5:53 AM 73.9 °F - 71.1 °F 91% 29.78 in 10.0 mi SSE 3.5 mph - N/A   Clear
6:53 AM 75.0 °F - 71.1 °F 87% 29.79 in 10.0 mi SSE 3.5 mph - N/A   Clear
7:53 AM 75.0 °F - 71.1 °F 87% 29.80 in 10.0 mi SSE 4.6 mph - N/A   Clear
8:53 AM 77.0 °F - 72.0 °F 84% 29.81 in 10.0 mi SSE 3.5 mph - N/A   Clear
9:34 AM 80.6 °F 85.4 °F 73.4 °F 79% 29.82 in 10.0 mi SSE 5.8 mph - N/A   Partly Cloudy
9:53 AM 82.0 °F 87.9 °F 73.9 °F 76% 29.82 in 10.0 mi South 6.9 mph - N/A   Clear
10:53 AM 84.0 °F 89.6 °F 72.0 °F 67% 29.83 in 10.0 mi South 9.2 mph - N/A   Partly Cloudy
11:53 AM 87.1 °F 92.8 °F 71.1 °F 59% 29.81 in 10.0 mi SSW 10.4 mph - N/A   Partly Cloudy
12:53 PM 88.0 °F 92.1 °F 69.1 °F 53% 29.80 in 10.0 mi South 13.8 mph - N/A   Clear
1:53 PM 88.0 °F 93.8 °F 71.1 °F 57% 29.77 in 10.0 mi South 10.4 mph 21.9 mph N/A   Partly Cloudy
2:53 PM 88.0 °F 92.1 °F 69.1 °F 53% 29.75 in 10.0 mi South 12.7 mph - N/A   Clear
3:53 PM 88.0 °F 92.1 °F 69.1 °F 53% 29.73 in 10.0 mi SSE 10.4 mph - N/A   Clear
4:53 PM 87.1 °F 89.9 °F 66.9 °F 51% 29.73 in 10.0 mi South 8.1 mph - N/A   Clear
5:53 PM 84.9 °F 89.4 °F 70.0 °F 61% 29.73 in 10.0 mi SSE 11.5 mph - N/A   Clear
6:53 PM 81.0 °F 84.9 °F 71.1 °F 72% 29.74 in 10.0 mi SE 6.9 mph - N/A   Clear
7:53 PM 78.1 °F - 72.0 °F 81% 29.75 in 10.0 mi SE 5.8 mph - N/A   Clear
8:53 PM 78.1 °F - 73.0 °F 84% 29.77 in 10.0 mi ESE 5.8 mph - N/A   Clear
9:53 PM 77.0 °F - 73.0 °F 88% 29.79 in 10.0 mi ESE 5.8 mph - N/A   Clear
10:53 PM 75.9 °F - 73.0 °F 91% 29.81 in 10.0 mi SE 3.5 mph - N/A   Clear
11:53 PM 75.0 °F - 72.0 °F 90% 29.81 in 10.0 mi Calm Calm - N/A   Clear